Time,TemperatureF,DewpointF,PressureIn,WindDirection,WindDirectionDegrees,WindSpeedMPH,WindSpeedGustMPH,Humidity,HourlyPrecipIn,Conditions,Clouds,dailyrainin,SoftwareType,DateUTC
2013-01-14 00:00:00,49.2,47.8,30.01,SW,236,6.0,9.0,95,0.00,,,0.01,WeatherCatV1.02B3,2013-01-14 05:00:00,
2013-01-14 00:03:00,49.2,47.8,30.01,SW,234,4.0,11.0,95,0.00,,,0.00,WeatherCatV1.02B3,2013-01-14 05:03:00,
2013-01-14 00:08:00,49.2,47.8,30.01,SW,226,5.0,11.0,95,0.00,,,0.00,WeatherCatV1.02B3,2013-01-14 05:08:00,
2013-01-14 00:13:00,49.2,47.8,30.01,SW,215,4.0,14.0,95,0.00,,,0.00,WeatherCatV1.02B3,2013-01-14 05:13:00,
2013-01-14 00:18:00,49.1,47.7,30.01,WSW,252,6.0,10.0,95,0.00,,,0.00,WeatherCatV1.02B3,2013-01-14 05:18:00,
2013-01-14 00:23:00,49.1,47.7,30.01,WSW,238,6.0,12.0,95,0.00,,,0.00,WeatherCatV1.02B3,2013-01-14 05:23:00,
2013-01-14 00:28:00,49.1,47.7,30.01,SW,235,6.0,10.0,95,0.00,,,0.00,WeatherCatV1.02B3,2013-01-14 05:28:00,
2013-01-14 00:33:00,49.0,47.6,30.00,SSW,196,5.0,12.0,95,0.00,,,0.00,WeatherCatV1.02B3,2013-01-14 05:33:00,
2013-01-14 00:38:00,49.0,47.6,30.01,WSW,244,5.0,10.0,95,0.00,,,0.00,WeatherCatV1.02B3,2013-01-14 05:38:00,
2013-01-14 00:43:00,49.0,47.6,30.00,SW,225,9.0,12.0,95,0.00,,,0.00,WeatherCatV1.02B3,2013-01-14 05:43:00,
2013-01-14 00:48:00,49.0,47.6,30.00,SW,227,0.0,3.0,95,0.00,,,0.00,WeatherCatV1.02B3,2013-01-14 05:48:00,
2013-01-14 00:53:00,48.9,47.5,30.00,SW,229,2.0,7.0,95,0.00,,,0.00,WeatherCatV1.02B3,2013-01-14 05:53:00,
2013-01-14 00:58:00,48.8,47.4,30.00,SW,227,4.0,7.0,95,0.00,,,0.00,WeatherCatV1.02B3,2013-01-14 05:58:00,
2013-01-14 01:03:00,48.8,47.4,30.00,WSW,243,4.0,9.0,95,0.00,,,0.00,WeatherCatV1.02B3,2013-01-14 06:03:00,
2013-01-14 01:08:00,48.8,47.4,30.00,WSW,258,0.0,5.0,95,0.00,,,0.00,WeatherCatV1.02B3,2013-01-14 06:08:00,
2013-01-14 01:13:00,48.7,47.3,30.00,WSW,243,5.0,6.0,95,0.00,,,0.00,WeatherCatV1.02B3,2013-01-14 06:13:00,
2013-01-14 01:18:00,48.7,47.3,30.00,SW,225,7.0,9.0,95,0.00,,,0.00,WeatherCatV1.02B3,2013-01-14 06:18:00,
2013-01-14 01:23:00,48.6,47.2,30.00,SW,232,8.0,10.0,95,0.00,,,0.00,WeatherCatV1.02B3,2013-01-14 06:23:00,
2013-01-14 01:28:00,48.6,47.2,30.00,SW,236,5.0,9.0,95,0.00,,,0.00,WeatherCatV1.02B3,2013-01-14 06:28:00,
2013-01-14 01:33:00,48.6,47.2,30.01,WSW,246,8.0,12.0,95,0.00,,,0.00,WeatherCatV1.02B3,2013-01-14 06:33:00,
2013-01-14 01:38:00,48.6,47.2,30.00,WSW,247,3.0,12.0,95,0.00,,,0.00,WeatherCatV1.02B3,2013-01-14 06:38:00,
2013-01-14 01:43:00,48.6,47.2,30.00,WSW,248,5.0,6.0,95,0.00,,,0.00,WeatherCatV1.02B3,2013-01-14 06:43:00,
2013-01-14 01:48:00,48.5,47.1,30.00,SW,229,8.0,9.0,95,0.00,,,0.00,WeatherCatV1.02B3,2013-01-14 06:48:00,
2013-01-14 01:53:00,48.5,47.1,30.00,WSW,246,10.0,10.0,95,0.00,,,0.00,WeatherCatV1.02B3,2013-01-14 06:53:00,
2013-01-14 01:58:00,48.6,47.2,30.00,WSW,240,3.0,7.0,95,0.00,,,0.00,WeatherCatV1.02B3,2013-01-14 06:58:00,
2013-01-14 02:03:00,48.5,47.1,30.00,SSW,213,4.0,10.0,95,0.00,,,0.00,WeatherCatV1.02B3,2013-01-14 07:03:00,
2013-01-14 02:08:00,48.5,47.1,30.00,WSW,241,8.0,9.0,95,0.00,,,0.00,WeatherCatV1.02B3,2013-01-14 07:08:00,
2013-01-14 02:13:00,48.5,47.1,30.00,WSW,244,9.0,14.0,95,0.00,,,0.00,WeatherCatV1.02B3,2013-01-14 07:13:00,
2013-01-14 02:18:00,48.5,47.1,30.00,SW,225,3.0,7.0,95,0.00,,,0.00,WeatherCatV1.02B3,2013-01-14 07:18:00,
2013-01-14 02:23:00,48.5,47.1,30.00,SSW,209,7.0,12.0,95,0.00,,,0.00,WeatherCatV1.02B3,2013-01-14 07:23:00,
2013-01-14 02:28:00,48.6,47.2,30.00,SSW,196,2.0,9.0,95,0.00,,,0.00,WeatherCatV1.02B3,2013-01-14 07:28:00,
2013-01-14 02:33:00,48.6,47.2,30.00,SW,231,4.0,9.0,95,0.00,,,0.00,WeatherCatV1.02B3,2013-01-14 07:33:00,
2013-01-14 02:38:00,48.6,47.2,30.00,WSW,240,11.0,11.0,95,0.00,,,0.00,WeatherCatV1.02B3,2013-01-14 07:38:00,
2013-01-14 02:43:00,48.6,47.2,30.00,West,263,11.0,13.0,95,0.00,,,0.00,WeatherCatV1.02B3,2013-01-14 07:43:00,
2013-01-14 02:48:00,48.7,47.3,30.00,WSW,248,3.0,9.0,95,0.00,,,0.00,WeatherCatV1.02B3,2013-01-14 07:48:00,
2013-01-14 02:53:00,48.7,47.3,30.00,WSW,242,6.0,11.0,95,0.00,,,0.00,WeatherCatV1.02B3,2013-01-14 07:53:00,
2013-01-14 02:58:00,48.7,47.3,30.00,SW,223,4.0,9.0,95,0.00,,,0.00,WeatherCatV1.02B3,2013-01-14 07:58:00,
2013-01-14 03:03:00,48.7,47.3,29.99,SE,125,1.0,6.0,95,0.00,,,0.00,WeatherCatV1.02B3,2013-01-14 08:03:00,
2013-01-14 03:08:00,48.7,47.3,29.99,SSW,196,3.0,6.0,95,0.00,,,0.00,WeatherCatV1.02B3,2013-01-14 08:08:00,
2013-01-14 03:13:00,48.7,47.3,29.99,SW,226,4.0,9.0,95,0.00,,,0.00,WeatherCatV1.02B3,2013-01-14 08:13:00,
2013-01-14 03:18:00,48.7,47.3,29.99,SW,229,0.0,1.0,95,0.00,,,0.00,WeatherCatV1.02B3,2013-01-14 08:18:00,
2013-01-14 03:23:00,48.7,47.3,29.99,West,275,3.0,5.0,95,0.00,,,0.00,WeatherCatV1.02B3,2013-01-14 08:23:00,
2013-01-14 03:28:00,48.7,47.3,29.99,WSW,257,2.0,7.0,95,0.00,,,0.00,WeatherCatV1.02B3,2013-01-14 08:28:00,
2013-01-14 03:33:00,48.8,47.4,29.98,WNW,299,2.0,3.0,95,0.00,,,0.00,WeatherCatV1.02B3,2013-01-14 08:33:00,
2013-01-14 03:38:00,48.7,47.3,29.98,WSW,244,9.0,9.0,95,0.00,,,0.00,WeatherCatV1.02B3,2013-01-14 08:38:00,
2013-01-14 03:43:00,48.7,47.3,29.98,West,271,0.0,8.0,95,0.00,,,0.00,WeatherCatV1.02B3,2013-01-14 08:43:00,
2013-01-14 03:48:00,48.7,47.3,29.97,West,260,10.0,12.0,95,0.00,,,0.00,WeatherCatV1.02B3,2013-01-14 08:48:00,
2013-01-14 03:53:00,48.7,47.3,29.98,SW,220,2.0,10.0,95,0.00,,,0.00,WeatherCatV1.02B3,2013-01-14 08:53:00,
2013-01-14 03:58:00,48.7,47.3,29.97,WNW,298,4.0,15.0,95,0.00,,,0.00,WeatherCatV1.02B3,2013-01-14 08:58:00,
2013-01-14 04:03:00,48.7,47.3,29.97,WSW,247,10.0,10.0,95,0.00,,,0.00,WeatherCatV1.02B3,2013-01-14 09:03:00,
2013-01-14 04:08:00,48.6,47.2,29.97,SW,217,7.0,9.0,95,0.00,,,0.00,WeatherCatV1.02B3,2013-01-14 09:08:00,
2013-01-14 04:13:00,48.5,47.1,29.97,WSW,246,3.0,9.0,95,0.00,,,0.00,WeatherCatV1.02B3,2013-01-14 09:13:00,
2013-01-14 04:18:00,48.5,47.1,29.97,West,259,6.0,9.0,95,0.00,,,0.00,WeatherCatV1.02B3,2013-01-14 09:18:00,
2013-01-14 04:23:00,48.5,47.1,29.97,SW,236,10.0,16.0,95,0.00,,,0.00,WeatherCatV1.02B3,2013-01-14 09:23:00,
2013-01-14 04:28:00,48.5,47.1,29.96,WSW,242,5.0,10.0,95,0.00,,,0.00,WeatherCatV1.02B3,2013-01-14 09:28:00,
2013-01-14 04:33:00,48.5,47.1,29.97,SW,232,5.0,8.0,95,0.00,,,0.00,WeatherCatV1.02B3,2013-01-14 09:33:00,
2013-01-14 04:38:00,48.5,47.1,29.97,WSW,243,4.0,10.0,95,0.00,,,0.00,WeatherCatV1.02B3,2013-01-14 09:38:00,
2013-01-14 04:43:00,48.6,47.2,29.96,WSW,240,11.0,15.0,95,0.00,,,0.00,WeatherCatV1.02B3,2013-01-14 09:43:00,
2013-01-14 04:48:00,48.7,47.3,29.96,West,259,6.0,13.0,95,0.00,,,0.00,WeatherCatV1.02B3,2013-01-14 09:48:00,
2013-01-14 04:53:00,48.7,47.3,29.96,WSW,239,8.0,10.0,95,0.00,,,0.00,WeatherCatV1.02B3,2013-01-14 09:53:00,
2013-01-14 04:58:00,48.7,47.3,29.96,SW,215,8.0,10.0,95,0.00,,,0.00,WeatherCatV1.02B3,2013-01-14 09:58:00,
2013-01-14 05:03:00,48.7,47.3,29.96,WSW,257,7.0,8.0,95,0.00,,,0.00,WeatherCatV1.02B3,2013-01-14 10:03:00,
2013-01-14 05:08:00,48.7,47.3,29.97,WSW,247,11.0,11.0,95,0.00,,,0.00,WeatherCatV1.02B3,2013-01-14 10:08:00,
2013-01-14 05:13:00,48.8,47.4,29.96,WSW,244,6.0,12.0,95,0.00,,,0.00,WeatherCatV1.02B3,2013-01-14 10:13:00,
2013-01-14 05:18:00,48.8,47.4,29.96,WSW,248,7.0,8.0,95,0.00,,,0.00,WeatherCatV1.02B3,2013-01-14 10:18:00,
2013-01-14 05:27:00,48.8,47.4,29.96,WSW,244,10.0,14.0,95,0.00,,,0.00,WeatherCatV1.02B3,2013-01-14 10:27:00,
2013-01-14 05:32:00,48.8,47.4,29.95,WSW,258,2.0,9.0,95,0.00,,,0.00,WeatherCatV1.02B3,2013-01-14 10:32:00,
2013-01-14 05:37:00,48.9,47.5,29.96,SW,217,3.0,11.0,95,0.00,,,0.00,WeatherCatV1.02B3,2013-01-14 10:37:00,
2013-01-14 05:42:00,49.0,47.6,29.96,WSW,246,1.0,8.0,95,0.00,,,0.00,WeatherCatV1.02B3,2013-01-14 10:42:00,
2013-01-14 05:47:00,49.0,47.6,29.96,SW,219,9.0,14.0,95,0.00,,,0.00,WeatherCatV1.02B3,2013-01-14 10:47:00,
2013-01-14 05:52:00,49.0,47.6,29.97,WNW,285,6.0,10.0,95,0.00,,,0.00,WeatherCatV1.02B3,2013-01-14 10:52:00,
2013-01-14 05:57:00,49.1,47.7,29.97,SW,229,4.0,8.0,95,0.00,,,0.00,WeatherCatV1.02B3,2013-01-14 10:57:00,
2013-01-14 06:02:00,49.2,47.8,29.96,SSW,211,4.0,8.0,95,0.00,,,0.00,WeatherCatV1.02B3,2013-01-14 11:02:00,
2013-01-14 06:07:00,49.3,47.9,29.96,WSW,240,8.0,8.0,95,0.00,,,0.00,WeatherCatV1.02B3,2013-01-14 11:07:00,
2013-01-14 06:12:00,49.4,48.0,29.96,WSW,237,8.0,8.0,95,0.00,,,0.00,WeatherCatV1.02B3,2013-01-14 11:12:00,
2013-01-14 06:17:00,49.4,48.0,29.95,SW,231,5.0,11.0,95,0.00,,,0.00,WeatherCatV1.02B3,2013-01-14 11:17:00,
2013-01-14 06:22:00,49.4,48.0,29.95,WSW,256,7.0,9.0,95,0.00,,,0.00,WeatherCatV1.02B3,2013-01-14 11:22:00,
2013-01-14 06:27:00,49.5,48.1,29.95,WSW,241,5.0,8.0,95,0.00,,,0.00,WeatherCatV1.02B3,2013-01-14 11:27:00,
2013-01-14 06:30:00,49.6,48.2,29.94,SSW,211,8.0,15.0,95,0.00,,,0.00,WeatherCatV1.02B3,2013-01-14 11:30:00,
2013-01-14 06:35:00,49.7,48.3,29.93,SW,219,4.0,5.0,95,0.00,,,0.00,WeatherCatV1.02B3,2013-01-14 11:35:00,
2013-01-14 06:40:00,49.7,48.3,29.93,SW,220,5.0,12.0,95,0.00,,,0.00,WeatherCatV1.02B3,2013-01-14 11:40:00,
2013-01-14 06:45:00,49.7,48.3,29.93,SW,231,8.0,14.0,95,0.00,,,0.00,WeatherCatV1.02B3,2013-01-14 11:45:00,
2013-01-14 06:50:00,49.8,48.4,29.93,WSW,252,11.0,11.0,95,0.00,,,0.00,WeatherCatV1.02B3,2013-01-14 11:50:00,
2013-01-14 06:55:00,49.8,48.4,29.92,South,190,5.0,12.0,95,0.00,,,0.00,WeatherCatV1.02B3,2013-01-14 11:55:00,
2013-01-14 07:00:00,49.8,48.4,29.91,SSW,208,5.0,15.0,95,0.00,,,0.00,WeatherCatV1.02B3,2013-01-14 12:00:00,
2013-01-14 07:06:00,50.0,48.6,29.91,SW,225,7.0,10.0,95,0.00,,,0.00,WeatherCatV1.02B3,2013-01-14 12:06:00,
2013-01-14 07:11:00,50.1,48.7,29.88,WSW,245,4.0,15.0,95,0.00,,,0.00,WeatherCatV1.02B3,2013-01-14 12:11:00,
2013-01-14 07:16:00,50.2,49.1,29.87,WSW,252,15.0,15.0,96,0.00,,,0.00,WeatherCatV1.02B3,2013-01-14 12:16:00,
2013-01-14 07:21:00,50.4,49.0,29.89,SW,223,15.0,16.0,95,0.00,,,0.00,WeatherCatV1.02B3,2013-01-14 12:21:00,
2013-01-14 07:26:00,50.6,49.2,29.91,SW,224,7.0,16.0,95,0.00,,,0.00,WeatherCatV1.02B3,2013-01-14 12:26:00,
2013-01-14 07:31:00,50.8,49.4,29.94,WSW,258,7.0,12.0,95,0.00,,,0.00,WeatherCatV1.02B3,2013-01-14 12:31:00,
2013-01-14 07:36:00,50.8,49.4,29.93,WNW,292,2.0,9.0,95,0.00,,,0.00,WeatherCatV1.02B3,2013-01-14 12:36:00,
2013-01-14 07:41:00,50.8,49.4,29.94,West,275,5.0,8.0,95,0.00,,,0.00,WeatherCatV1.02B3,2013-01-14 12:41:00,
2013-01-14 07:46:00,50.7,49.3,29.95,WNW,282,0.0,8.0,95,0.00,,,0.00,WeatherCatV1.02B3,2013-01-14 12:46:00,
2013-01-14 07:51:00,50.8,49.4,29.96,SW,236,5.0,13.0,95,0.00,,,0.00,WeatherCatV1.02B3,2013-01-14 12:51:00,
2013-01-14 07:56:00,50.8,49.4,29.96,WSW,258,5.0,12.0,95,0.00,,,0.00,WeatherCatV1.02B3,2013-01-14 12:56:00,
2013-01-14 08:01:00,50.8,49.4,29.96,SW,225,7.0,10.0,95,0.00,,,0.00,WeatherCatV1.02B3,2013-01-14 13:01:00,
2013-01-14 08:06:00,50.8,49.4,29.96,SW,219,6.0,10.0,95,0.00,,,0.00,WeatherCatV1.02B3,2013-01-14 13:06:00,
2013-01-14 08:11:00,50.7,49.3,29.96,SW,232,6.0,11.0,95,0.00,,,0.00,WeatherCatV1.02B3,2013-01-14 13:11:00,
2013-01-14 08:16:00,50.8,49.4,29.96,SW,224,6.0,8.0,95,0.00,,,0.00,WeatherCatV1.02B3,2013-01-14 13:16:00,
2013-01-14 08:21:00,50.8,49.4,29.97,WSW,241,8.0,18.0,95,0.00,,,0.00,WeatherCatV1.02B3,2013-01-14 13:21:00,
2013-01-14 08:26:00,51.0,49.6,29.96,WSW,247,5.0,5.0,95,0.00,,,0.00,WeatherCatV1.02B3,2013-01-14 13:26:00,
2013-01-14 08:31:00,51.2,49.8,29.96,WSW,237,4.0,10.0,95,0.00,,,0.00,WeatherCatV1.02B3,2013-01-14 13:31:00,
2013-01-14 08:36:00,51.3,49.9,29.97,SW,225,7.0,7.0,95,0.00,,,0.00,WeatherCatV1.02B3,2013-01-14 13:36:00,
2013-01-14 08:41:00,51.4,50.0,29.97,WSW,245,1.0,10.0,95,0.00,,,0.00,WeatherCatV1.02B3,2013-01-14 13:41:00,
2013-01-14 08:46:00,51.5,50.1,29.98,WNW,297,0.0,4.0,95,0.00,,,0.00,WeatherCatV1.02B3,2013-01-14 13:46:00,
2013-01-14 08:51:00,51.6,50.2,29.99,SW,233,3.0,7.0,95,0.00,,,0.00,WeatherCatV1.02B3,2013-01-14 13:51:00,
2013-01-14 08:56:00,51.7,50.3,29.99,SW,235,5.0,8.0,95,0.00,,,0.00,WeatherCatV1.02B3,2013-01-14 13:56:00,
2013-01-14 09:01:00,51.9,50.5,29.99,WSW,250,4.0,8.0,95,0.00,,,0.00,WeatherCatV1.02B3,2013-01-14 14:01:00,
2013-01-14 09:06:00,52.0,50.6,29.99,SW,231,4.0,12.0,95,0.00,,,0.00,WeatherCatV1.02B3,2013-01-14 14:06:00,
2013-01-14 09:11:00,52.1,50.7,29.99,WSW,243,7.0,10.0,95,0.00,,,0.00,WeatherCatV1.02B3,2013-01-14 14:11:00,
2013-01-14 09:16:00,52.3,50.9,30.00,WSW,250,8.0,8.0,95,0.00,,,0.00,WeatherCatV1.02B3,2013-01-14 14:16:00,
2013-01-14 09:21:00,52.4,51.0,30.00,West,259,3.0,7.0,95,0.00,,,0.00,WeatherCatV1.02B3,2013-01-14 14:21:00,
2013-01-14 09:26:00,52.4,51.0,30.00,WSW,250,4.0,7.0,95,0.00,,,0.00,WeatherCatV1.02B3,2013-01-14 14:26:00,
2013-01-14 09:31:00,52.6,51.2,30.01,WSW,247,4.0,6.0,95,0.00,,,0.00,WeatherCatV1.02B3,2013-01-14 14:31:00,
2013-01-14 09:36:00,52.6,50.9,30.01,West,281,0.0,5.0,94,0.00,,,0.00,WeatherCatV1.02B3,2013-01-14 14:36:00,
2013-01-14 09:41:00,52.7,51.0,30.02,SW,235,6.0,8.0,94,0.00,,,0.00,WeatherCatV1.02B3,2013-01-14 14:41:00,
2013-01-14 09:46:00,52.8,51.1,30.02,SW,228,4.0,6.0,94,0.00,,,0.00,WeatherCatV1.02B3,2013-01-14 14:46:00,
2013-01-14 09:51:00,52.8,51.1,30.02,WSW,242,5.0,9.0,94,0.00,,,0.00,WeatherCatV1.02B3,2013-01-14 14:51:00,
2013-01-14 09:56:00,52.9,51.2,30.02,West,265,0.0,5.0,94,0.00,,,0.00,WeatherCatV1.02B3,2013-01-14 14:56:00,
2013-01-14 10:01:00,52.9,51.2,30.02,WSW,255,4.0,6.0,94,0.00,,,0.00,WeatherCatV1.02B3,2013-01-14 15:01:00,
2013-01-14 10:06:00,52.9,51.2,30.03,West,281,3.0,3.0,94,0.00,,,0.00,WeatherCatV1.02B3,2013-01-14 15:06:00,
2013-01-14 10:11:00,53.0,51.0,30.03,WSW,256,5.0,9.0,93,0.00,,,0.00,WeatherCatV1.02B3,2013-01-14 15:11:00,
2013-01-14 10:16:00,53.0,51.0,30.03,WNW,290,6.0,10.0,93,0.00,,,0.00,WeatherCatV1.02B3,2013-01-14 15:16:00,
2013-01-14 10:21:00,53.1,51.1,30.03,WNW,296,6.0,7.0,93,0.00,,,0.00,WeatherCatV1.02B3,2013-01-14 15:21:00,
2013-01-14 10:26:00,53.1,51.1,30.03,West,279,9.0,9.0,93,0.00,,,0.00,WeatherCatV1.02B3,2013-01-14 15:26:00,
2013-01-14 10:31:00,53.2,50.9,30.03,WNW,286,5.0,8.0,92,0.00,,,0.00,WeatherCatV1.02B3,2013-01-14 15:31:00,
2013-01-14 10:36:00,53.3,50.7,30.03,WNW,282,9.0,9.0,91,0.00,,,0.00,WeatherCatV1.02B3,2013-01-14 15:36:00,
2013-01-14 10:41:00,53.5,50.9,30.03,West,280,0.0,2.0,91,0.00,,,0.00,WeatherCatV1.02B3,2013-01-14 15:41:00,
2013-01-14 10:46:00,53.5,50.6,30.02,WNW,300,7.0,9.0,90,0.00,,,0.00,WeatherCatV1.02B3,2013-01-14 15:46:00,
2013-01-14 10:51:00,53.5,50.0,30.02,WNW,284,6.0,10.0,88,0.00,,,0.00,WeatherCatV1.02B3,2013-01-14 15:51:00,
2013-01-14 10:56:00,53.6,50.4,30.02,West,276,4.0,7.0,89,0.00,,,0.00,WeatherCatV1.02B3,2013-01-14 15:56:00,
2013-01-14 11:01:00,53.9,50.7,30.03,North,0,0.0,6.0,89,0.00,,,0.00,WeatherCatV1.02B3,2013-01-14 16:01:00,
2013-01-14 11:06:00,54.2,50.7,30.02,WNW,289,4.0,4.0,88,0.00,,,0.00,WeatherCatV1.02B3,2013-01-14 16:06:00,
2013-01-14 11:11:00,54.4,50.3,30.02,WNW,299,7.0,12.0,86,0.00,,,0.00,WeatherCatV1.02B3,2013-01-14 16:11:00,
2013-01-14 11:16:00,54.6,50.8,30.01,West,277,5.0,6.0,87,0.00,,,0.00,WeatherCatV1.02B3,2013-01-14 16:16:00,
2013-01-14 11:21:00,54.8,50.4,30.01,WNW,288,0.0,7.0,85,0.00,,,0.00,WeatherCatV1.02B3,2013-01-14 16:21:00,
2013-01-14 11:34:00,54.8,50.1,30.01,WNW,296,3.0,8.0,84,0.00,,,0.00,WeatherCatV1.02B3,2013-01-14 16:34:00,
2013-01-14 11:39:00,54.7,50.0,30.00,West,267,5.0,5.0,84,0.00,,,0.00,WeatherCatV1.02B3,2013-01-14 16:39:00,
2013-01-14 11:44:00,54.6,49.5,30.01,West,267,7.0,10.0,83,0.00,,,0.00,WeatherCatV1.02B3,2013-01-14 16:44:00,
2013-01-14 11:49:00,54.6,49.5,30.01,WSW,237,2.0,4.0,83,0.00,,,0.00,WeatherCatV1.02B3,2013-01-14 16:49:00,
2013-01-14 11:54:00,54.9,49.8,30.01,WNW,292,0.0,5.0,83,0.00,,,0.00,WeatherCatV1.02B3,2013-01-14 16:54:00,
2013-01-14 11:59:00,55.4,49.7,30.01,WNW,282,1.0,1.0,81,0.00,,,0.00,WeatherCatV1.02B3,2013-01-14 16:59:00,
2013-01-14 12:04:00,55.7,49.6,30.01,WNW,289,1.0,1.0,80,0.00,,,0.00,WeatherCatV1.02B3,2013-01-14 17:04:00,
2013-01-14 12:10:00,55.9,49.1,30.00,West,267,1.0,1.0,78,0.00,,,0.00,WeatherCatV1.02B3,2013-01-14 17:10:00,
2013-01-14 12:15:00,55.7,48.6,30.01,West,277,0.0,1.0,77,0.00,,,0.00,WeatherCatV1.02B3,2013-01-14 17:15:00,
2013-01-14 12:20:00,55.9,48.8,30.00,WNW,302,0.0,2.0,77,0.00,,,0.00,WeatherCatV1.02B3,2013-01-14 17:20:00,
2013-01-14 12:25:00,56.2,48.7,30.00,NW,321,0.0,1.0,76,0.00,,,0.00,WeatherCatV1.02B3,2013-01-14 17:25:00,
2013-01-14 12:30:00,56.4,48.6,30.01,WSW,250,1.0,1.0,75,0.00,,,0.00,WeatherCatV1.02B3,2013-01-14 17:30:00,
2013-01-14 12:35:00,56.6,48.8,30.01,West,272,0.0,1.0,75,0.00,,,0.00,WeatherCatV1.02B3,2013-01-14 17:35:00,
2013-01-14 12:40:00,56.7,48.1,30.01,West,261,0.0,1.0,73,0.00,,,0.00,WeatherCatV1.02B3,2013-01-14 17:40:00,
2013-01-14 12:45:00,56.7,48.1,30.01,West,277,1.0,2.0,73,0.00,,,0.00,WeatherCatV1.02B3,2013-01-14 17:45:00,
2013-01-14 12:50:00,56.8,48.2,30.01,WSW,248,1.0,1.0,73,0.00,,,0.00,WeatherCatV1.02B3,2013-01-14 17:50:00,
2013-01-14 12:55:00,56.9,48.0,30.01,WSW,257,0.0,1.0,72,0.00,,,0.00,WeatherCatV1.02B3,2013-01-14 17:55:00,
2013-01-14 13:00:00,56.7,47.8,30.01,WSW,249,0.0,1.0,72,0.00,,,0.00,WeatherCatV1.02B3,2013-01-14 18:00:00,
2013-01-14 13:07:00,57.1,47.8,30.02,West,281,0.0,0.0,71,0.00,,,0.00,WeatherCatV1.02B3,2013-01-14 18:07:00,
2013-01-14 13:12:00,57.2,47.5,30.02,North,351,0.0,2.0,70,0.00,,,0.00,WeatherCatV1.02B3,2013-01-14 18:12:00,
2013-01-14 13:17:00,57.1,47.8,30.02,WNW,285,1.0,1.0,71,0.00,,,0.00,WeatherCatV1.02B3,2013-01-14 18:17:00,
2013-01-14 13:22:00,57.2,47.5,30.02,West,269,3.0,8.0,70,0.00,,,0.00,WeatherCatV1.02B3,2013-01-14 18:22:00,
2013-01-14 13:27:00,57.4,47.3,30.02,WSW,257,8.0,10.0,69,0.00,,,0.00,WeatherCatV1.02B3,2013-01-14 18:27:00,
2013-01-14 13:32:00,57.0,46.9,30.03,WSW,246,3.0,12.0,69,0.00,,,0.00,WeatherCatV1.02B3,2013-01-14 18:32:00,
2013-01-14 13:37:00,57.2,46.7,30.03,West,271,6.0,10.0,68,0.00,,,0.00,WeatherCatV1.02B3,2013-01-14 18:37:00,
2013-01-14 13:42:00,57.0,46.2,30.03,WNW,293,4.0,11.0,67,0.00,,,0.00,WeatherCatV1.02B3,2013-01-14 18:42:00,
2013-01-14 13:47:00,56.7,45.5,30.04,SW,228,4.0,10.0,66,0.00,,,0.00,WeatherCatV1.02B3,2013-01-14 18:47:00,
2013-01-14 13:52:00,56.7,45.5,30.04,West,275,8.0,9.0,66,0.00,,,0.00,WeatherCatV1.02B3,2013-01-14 18:52:00,
2013-01-14 13:57:00,56.7,44.7,30.04,West,267,12.0,12.0,64,0.00,,,0.00,WeatherCatV1.02B3,2013-01-14 18:57:00,
2013-01-14 14:02:00,56.5,44.1,30.04,West,265,9.0,11.0,63,0.00,,,0.00,WeatherCatV1.02B3,2013-01-14 19:02:00,
2013-01-14 14:07:00,56.5,43.6,30.05,West,280,11.0,17.0,62,0.00,,,0.00,WeatherCatV1.02B3,2013-01-14 19:07:00,
2013-01-14 14:12:00,56.3,42.6,30.06,WSW,242,6.0,16.0,60,0.00,,,0.00,WeatherCatV1.02B3,2013-01-14 19:12:00,
2013-01-14 14:17:00,56.2,41.6,30.05,West,265,5.0,12.0,58,0.00,,,0.00,WeatherCatV1.02B3,2013-01-14 19:17:00,
2013-01-14 14:22:00,56.1,41.1,30.06,West,275,6.0,11.0,57,0.00,,,0.00,WeatherCatV1.02B3,2013-01-14 19:22:00,
2013-01-14 14:27:00,56.1,39.7,30.06,WNW,287,13.0,14.0,54,0.00,,,0.00,WeatherCatV1.02B3,2013-01-14 19:27:00,
2013-01-14 14:32:00,56.0,39.6,30.07,West,281,4.0,4.0,54,0.00,,,0.00,WeatherCatV1.02B3,2013-01-14 19:32:00,
2013-01-14 14:37:00,55.8,38.4,30.08,WNW,286,2.0,11.0,52,0.00,,,0.00,WeatherCatV1.02B3,2013-01-14 19:37:00,
2013-01-14 14:42:00,55.7,38.3,30.08,WNW,282,3.0,6.0,52,0.00,,,0.00,WeatherCatV1.02B3,2013-01-14 19:42:00,
2013-01-14 14:47:00,55.4,37.6,30.08,WNW,300,8.0,11.0,51,0.00,,,0.00,WeatherCatV1.02B3,2013-01-14 19:47:00,
2013-01-14 14:52:00,55.0,37.2,30.09,NW,321,4.0,9.0,51,0.00,,,0.00,WeatherCatV1.02B3,2013-01-14 19:52:00,
2013-01-14 14:57:00,55.0,36.7,30.09,NNW,327,7.0,10.0,50,0.00,,,0.00,WeatherCatV1.02B3,2013-01-14 19:57:00,
2013-01-14 15:02:00,54.8,36.5,30.08,West,263,6.0,7.0,50,0.00,,,0.00,WeatherCatV1.02B3,2013-01-14 20:02:00,
2013-01-14 15:07:00,54.5,35.7,30.09,WNW,292,3.0,7.0,49,0.00,,,0.00,WeatherCatV1.02B3,2013-01-14 20:07:00,
2013-01-14 15:12:00,54.1,34.8,30.08,WNW,291,3.0,9.0,48,0.00,,,0.00,WeatherCatV1.02B3,2013-01-14 20:12:00,
2013-01-14 15:17:00,53.9,34.7,30.09,West,281,6.0,13.0,48,0.00,,,0.00,WeatherCatV1.02B3,2013-01-14 20:17:00,
2013-01-14 15:22:00,53.5,33.2,30.10,West,281,5.0,12.0,46,0.00,,,0.00,WeatherCatV1.02B3,2013-01-14 20:22:00,
2013-01-14 15:27:00,53.0,32.2,30.09,WNW,284,3.0,12.0,45,0.00,,,0.00,WeatherCatV1.02B3,2013-01-14 20:27:00,
2013-01-14 15:32:00,52.5,31.8,30.11,West,277,8.0,13.0,45,0.00,,,0.00,WeatherCatV1.02B3,2013-01-14 20:32:00,
2013-01-14 15:37:00,52.2,32.0,30.11,NNW,346,6.0,14.0,46,0.00,,,0.00,WeatherCatV1.02B3,2013-01-14 20:37:00,
2013-01-14 15:42:00,51.9,31.8,30.10,West,272,9.0,11.0,46,0.00,,,0.00,WeatherCatV1.02B3,2013-01-14 20:42:00,
2013-01-14 15:48:00,51.5,30.9,30.11,West,268,12.0,12.0,45,0.00,,,0.00,WeatherCatV1.02B3,2013-01-14 20:48:00,
2013-01-14 15:53:00,51.2,30.0,30.11,West,273,4.0,6.0,44,0.00,,,0.00,WeatherCatV1.02B3,2013-01-14 20:53:00,
2013-01-14 15:58:00,51.0,29.3,30.12,WNW,282,12.0,12.0,43,0.00,,,0.00,WeatherCatV1.02B3,2013-01-14 20:58:00,
2013-01-14 16:05:00,50.6,28.4,30.12,WNW,289,3.0,8.0,42,0.00,,,0.00,WeatherCatV1.02B3,2013-01-14 21:05:00,
2013-01-14 16:10:00,50.4,28.8,30.12,WSW,258,3.0,6.0,43,0.00,,,0.00,WeatherCatV1.02B3,2013-01-14 21:10:00,
2013-01-14 16:15:00,50.0,29.0,30.13,WNW,289,2.0,7.0,44,0.00,,,0.00,WeatherCatV1.02B3,2013-01-14 21:15:00,
2013-01-14 16:20:00,49.7,29.2,30.13,WNW,300,5.0,9.0,45,0.00,,,0.00,WeatherCatV1.02B3,2013-01-14 21:20:00,
2013-01-14 16:25:00,49.4,29.5,30.14,West,278,7.0,10.0,46,0.00,,,0.00,WeatherCatV1.02B3,2013-01-14 21:25:00,
2013-01-14 16:30:00,49.2,29.3,30.13,WNW,287,0.0,6.0,46,0.00,,,0.00,WeatherCatV1.02B3,2013-01-14 21:30:00,
2013-01-14 16:35:00,49.0,29.1,30.13,West,269,5.0,8.0,46,0.00,,,0.00,WeatherCatV1.02B3,2013-01-14 21:35:00,
2013-01-14 16:40:00,48.7,29.4,30.13,WNW,296,5.0,10.0,47,0.00,,,0.00,WeatherCatV1.02B3,2013-01-14 21:40:00,
2013-01-14 16:45:00,48.4,29.1,30.13,West,273,2.0,9.0,47,0.00,,,0.00,WeatherCatV1.02B3,2013-01-14 21:45:00,
2013-01-14 16:50:00,48.1,29.9,30.13,West,273,0.0,5.0,49,0.00,,,0.00,WeatherCatV1.02B3,2013-01-14 21:50:00,
2013-01-14 16:55:00,47.9,30.2,30.13,WNW,284,4.0,6.0,50,0.00,,,0.00,WeatherCatV1.02B3,2013-01-14 21:55:00,
2013-01-14 17:00:00,47.6,29.9,30.14,West,265,0.0,4.0,50,0.00,,,0.00,WeatherCatV1.02B3,2013-01-14 22:00:00,
2013-01-14 17:05:00,47.4,30.2,30.14,West,281,0.0,4.0,51,0.00,,,0.00,WeatherCatV1.02B3,2013-01-14 22:05:00,
2013-01-14 17:10:00,47.1,30.4,30.14,West,278,0.0,6.0,52,0.00,,,0.00,WeatherCatV1.02B3,2013-01-14 22:10:00,
2013-01-14 17:15:00,47.0,30.8,30.14,West,278,5.0,6.0,53,0.00,,,0.00,WeatherCatV1.02B3,2013-01-14 22:15:00,
2013-01-14 17:20:00,46.7,30.5,30.14,West,278,2.0,3.0,53,0.00,,,0.00,WeatherCatV1.02B3,2013-01-14 22:20:00,
2013-01-14 17:25:00,46.5,30.8,30.15,West,273,0.0,4.0,54,0.00,,,0.00,WeatherCatV1.02B3,2013-01-14 22:25:00,
2013-01-14 17:30:00,46.3,31.0,30.15,West,277,1.0,7.0,55,0.00,,,0.00,WeatherCatV1.02B3,2013-01-14 22:30:00,
2013-01-14 17:35:00,46.1,30.8,30.15,WNW,286,0.0,5.0,55,0.00,,,0.00,WeatherCatV1.02B3,2013-01-14 22:35:00,
2013-01-14 17:40:00,45.9,31.1,30.15,WNW,284,0.0,4.0,56,0.00,,,0.00,WeatherCatV1.02B3,2013-01-14 22:40:00,
2013-01-14 17:45:00,45.6,31.3,30.14,NW,312,4.0,5.0,57,0.00,,,0.00,WeatherCatV1.02B3,2013-01-14 22:45:00,
2013-01-14 17:50:00,45.4,31.1,30.14,WNW,302,3.0,3.0,57,0.00,,,0.00,WeatherCatV1.02B3,2013-01-14 22:50:00,
2013-01-14 17:55:00,45.2,31.3,30.14,WNW,286,0.0,1.0,58,0.00,,,0.00,WeatherCatV1.02B3,2013-01-14 22:55:00,
2013-01-14 18:00:00,44.9,31.0,30.15,West,279,3.0,5.0,58,0.00,,,0.00,WeatherCatV1.02B3,2013-01-14 23:00:00,
2013-01-14 18:05:00,44.8,31.4,30.14,West,279,0.0,3.0,59,0.00,,,0.00,WeatherCatV1.02B3,2013-01-14 23:05:00,
2013-01-14 18:10:00,44.7,31.3,30.14,WNW,283,1.0,3.0,59,0.00,,,0.00,WeatherCatV1.02B3,2013-01-14 23:10:00,
2013-01-14 18:15:00,44.6,31.2,30.15,WNW,283,0.0,3.0,59,0.00,,,0.00,WeatherCatV1.02B3,2013-01-14 23:15:00,
2013-01-14 18:20:00,44.6,31.2,30.14,NW,306,0.0,5.0,59,0.00,,,0.00,WeatherCatV1.02B3,2013-01-14 23:20:00,
2013-01-14 18:25:00,44.5,31.1,30.15,West,260,4.0,5.0,59,0.00,,,0.00,WeatherCatV1.02B3,2013-01-14 23:25:00,
2013-01-14 18:30:00,44.5,31.1,30.16,West,275,3.0,5.0,59,0.00,,,0.00,WeatherCatV1.02B3,2013-01-14 23:30:00,
2013-01-14 18:35:00,44.4,31.0,30.16,West,275,0.0,5.0,59,0.00,,,0.00,WeatherCatV1.02B3,2013-01-14 23:35:00,
2013-01-14 18:40:00,44.3,31.3,30.16,WNW,284,1.0,3.0,60,0.00,,,0.00,WeatherCatV1.02B3,2013-01-14 23:40:00,
2013-01-14 18:45:00,44.0,31.0,30.16,WNW,282,1.0,3.0,60,0.00,,,0.00,WeatherCatV1.02B3,2013-01-14 23:45:00,
2013-01-14 18:50:00,43.8,30.8,30.16,WNW,287,4.0,6.0,60,0.00,,,0.00,WeatherCatV1.02B3,2013-01-14 23:50:00,
2013-01-14 18:55:00,43.9,30.9,30.16,NW,311,2.0,9.0,60,0.00,,,0.00,WeatherCatV1.02B3,2013-01-14 23:55:00,
2013-01-14 19:00:00,43.8,30.8,30.17,West,279,2.0,4.0,60,0.00,,,0.00,WeatherCatV1.02B3,2013-01-15 00:00:00,
2013-01-14 19:05:00,43.8,30.8,30.18,WNW,290,2.0,5.0,60,0.00,,,0.00,WeatherCatV1.02B3,2013-01-15 00:05:00,
2013-01-14 19:10:00,43.6,31.0,30.18,WNW,295,6.0,8.0,61,0.00,,,0.00,WeatherCatV1.02B3,2013-01-15 00:10:00,
2013-01-14 19:15:00,43.5,31.4,30.17,NW,304,10.0,10.0,62,0.00,,,0.00,WeatherCatV1.02B3,2013-01-15 00:15:00,
2013-01-14 19:20:00,43.4,30.9,30.17,WNW,284,3.0,7.0,61,0.00,,,0.00,WeatherCatV1.02B3,2013-01-15 00:20:00,
2013-01-14 19:25:00,43.3,30.8,30.17,WNW,293,0.0,4.0,61,0.00,,,0.00,WeatherCatV1.02B3,2013-01-15 00:25:00,
2013-01-14 19:30:00,43.2,30.7,30.17,West,279,3.0,5.0,61,0.00,,,0.00,WeatherCatV1.02B3,2013-01-15 00:30:00,
2013-01-14 19:35:00,43.1,31.0,30.16,North,5,2.0,2.0,62,0.00,,,0.00,WeatherCatV1.02B3,2013-01-15 00:35:00,
2013-01-14 19:40:00,42.9,30.8,30.17,WNW,293,5.0,8.0,62,0.00,,,0.00,WeatherCatV1.02B3,2013-01-15 00:40:00,
2013-01-14 19:45:00,42.9,30.8,30.19,West,271,7.0,9.0,62,0.00,,,0.00,WeatherCatV1.02B3,2013-01-15 00:45:00,
2013-01-14 19:50:00,42.9,30.8,30.20,WNW,287,5.0,10.0,62,0.00,,,0.00,WeatherCatV1.02B3,2013-01-15 00:50:00,
2013-01-14 19:55:00,42.9,30.8,30.20,West,279,8.0,8.0,62,0.00,,,0.00,WeatherCatV1.02B3,2013-01-15 00:55:00,
2013-01-14 20:00:00,42.8,30.7,30.20,NW,325,2.0,7.0,62,0.00,,,0.00,WeatherCatV1.02B3,2013-01-15 01:00:00,
2013-01-14 20:05:00,42.7,30.6,30.20,NNW,328,0.0,7.0,62,0.00,,,0.00,WeatherCatV1.02B3,2013-01-15 01:05:00,
2013-01-14 20:10:00,42.6,30.5,30.20,West,273,2.0,8.0,62,0.00,,,0.00,WeatherCatV1.02B3,2013-01-15 01:10:00,
2013-01-14 20:16:00,42.5,30.8,30.21,NW,326,5.0,5.0,63,0.00,,,0.00,WeatherCatV1.02B3,2013-01-15 01:16:00,
2013-01-14 20:21:00,42.4,30.3,30.21,West,281,0.0,2.0,62,0.00,,,0.00,WeatherCatV1.02B3,2013-01-15 01:21:00,
2013-01-14 20:26:00,42.4,30.3,30.21,WNW,295,6.0,9.0,62,0.00,,,0.00,WeatherCatV1.02B3,2013-01-15 01:26:00,
2013-01-14 20:31:00,42.2,30.1,30.21,WNW,290,2.0,9.0,62,0.00,,,0.00,WeatherCatV1.02B3,2013-01-15 01:31:00,
2013-01-14 20:36:00,42.2,30.5,30.22,NNW,340,6.0,8.0,63,0.00,,,0.00,WeatherCatV1.02B3,2013-01-15 01:36:00,
2013-01-14 20:41:00,42.1,30.4,30.22,West,272,0.0,8.0,63,0.00,,,0.00,WeatherCatV1.02B3,2013-01-15 01:41:00,
2013-01-14 20:46:00,42.0,30.3,30.22,West,277,0.0,6.0,63,0.00,,,0.00,WeatherCatV1.02B3,2013-01-15 01:46:00,
2013-01-14 20:51:00,41.9,30.2,30.22,WNW,302,4.0,5.0,63,0.00,,,0.00,WeatherCatV1.02B3,2013-01-15 01:51:00,
2013-01-14 20:56:00,41.8,30.1,30.23,West,265,5.0,11.0,63,0.00,,,0.00,WeatherCatV1.02B3,2013-01-15 01:56:00,
2013-01-14 21:01:00,41.6,30.0,30.23,WNW,300,2.0,6.0,63,0.00,,,0.00,WeatherCatV1.02B3,2013-01-15 02:01:00,
2013-01-14 21:06:00,41.5,29.9,30.22,WNW,292,0.0,4.0,63,0.00,,,0.00,WeatherCatV1.02B3,2013-01-15 02:06:00,
2013-01-14 21:11:00,41.3,30.1,30.22,NW,315,2.0,2.0,64,0.00,,,0.00,WeatherCatV1.02B3,2013-01-15 02:11:00,
2013-01-14 21:16:00,41.1,29.9,30.22,NNW,347,4.0,6.0,64,0.00,,,0.00,WeatherCatV1.02B3,2013-01-15 02:16:00,
2013-01-14 21:21:00,41.0,29.8,30.21,WNW,303,0.0,4.0,64,0.00,,,0.00,WeatherCatV1.02B3,2013-01-15 02:21:00,
2013-01-14 21:26:00,40.9,30.1,30.21,WNW,295,5.0,8.0,65,0.00,,,0.00,WeatherCatV1.02B3,2013-01-15 02:26:00,
2013-01-14 21:31:00,40.7,29.5,30.22,WNW,296,3.0,5.0,64,0.00,,,0.00,WeatherCatV1.02B3,2013-01-15 02:31:00,
2013-01-14 21:36:00,40.6,29.8,30.21,NNW,338,3.0,6.0,65,0.00,,,0.00,WeatherCatV1.02B3,2013-01-15 02:36:00,
2013-01-14 21:41:00,40.6,29.8,30.22,WNW,291,5.0,5.0,65,0.00,,,0.00,WeatherCatV1.02B3,2013-01-15 02:41:00,
2013-01-14 21:46:00,40.4,29.6,30.22,WNW,287,0.0,5.0,65,0.00,,,0.00,WeatherCatV1.02B3,2013-01-15 02:46:00,
2013-01-14 21:51:00,40.3,29.5,30.22,WSW,254,3.0,6.0,65,0.00,,,0.00,WeatherCatV1.02B3,2013-01-15 02:51:00,
2013-01-14 21:56:00,40.2,29.8,30.23,WNW,288,3.0,8.0,66,0.00,,,0.00,WeatherCatV1.02B3,2013-01-15 02:56:00,
2013-01-14 22:01:00,40.1,29.3,30.23,West,261,1.0,9.0,65,0.00,,,0.00,WeatherCatV1.02B3,2013-01-15 03:01:00,
2013-01-14 22:06:00,40.0,29.6,30.23,WNW,284,0.0,6.0,66,0.00,,,0.00,WeatherCatV1.02B3,2013-01-15 03:06:00,
2013-01-14 22:11:00,39.9,29.5,30.23,WNW,291,3.0,3.0,66,0.00,,,0.00,WeatherCatV1.02B3,2013-01-15 03:11:00,
2013-01-14 22:16:00,39.8,29.4,30.23,WNW,296,7.0,7.0,66,0.00,,,0.00,WeatherCatV1.02B3,2013-01-15 03:16:00,
2013-01-14 22:21:00,39.7,29.3,30.23,WNW,302,2.0,9.0,66,0.00,,,0.00,WeatherCatV1.02B3,2013-01-15 03:21:00,
2013-01-14 22:26:00,39.7,29.7,30.24,WNW,282,5.0,5.0,67,0.00,,,0.00,WeatherCatV1.02B3,2013-01-15 03:26:00,
2013-01-14 22:31:00,39.6,29.6,30.25,West,279,4.0,4.0,67,0.00,,,0.00,WeatherCatV1.02B3,2013-01-15 03:31:00,
2013-01-14 22:36:00,39.5,29.5,30.25,WNW,291,3.0,9.0,67,0.00,,,0.00,WeatherCatV1.02B3,2013-01-15 03:36:00,
2013-01-14 22:41:00,39.4,29.4,30.25,West,275,4.0,9.0,67,0.00,,,0.00,WeatherCatV1.02B3,2013-01-15 03:41:00,
2013-01-14 22:46:00,39.3,29.3,30.25,West,265,3.0,6.0,67,0.00,,,0.00,WeatherCatV1.02B3,2013-01-15 03:46:00,
2013-01-14 22:51:00,39.2,29.2,30.25,WNW,290,5.0,9.0,67,0.00,,,0.00,WeatherCatV1.02B3,2013-01-15 03:51:00,
2013-01-14 22:56:00,39.2,29.2,30.25,WNW,285,2.0,6.0,67,0.00,,,0.00,WeatherCatV1.02B3,2013-01-15 03:56:00,
2013-01-14 23:01:00,39.1,29.1,30.25,NW,318,0.0,7.0,67,0.00,,,0.00,WeatherCatV1.02B3,2013-01-15 04:01:00,
2013-01-14 23:06:00,39.0,29.0,30.25,West,280,5.0,10.0,67,0.00,,,0.00,WeatherCatV1.02B3,2013-01-15 04:06:00,
2013-01-14 23:11:00,38.9,29.3,30.25,WNW,290,9.0,11.0,68,0.00,,,0.00,WeatherCatV1.02B3,2013-01-15 04:11:00,
2013-01-14 23:16:00,38.9,29.3,30.26,West,274,6.0,10.0,68,0.00,,,0.00,WeatherCatV1.02B3,2013-01-15 04:16:00,
2013-01-14 23:21:00,38.8,29.2,30.27,West,272,3.0,6.0,68,0.00,,,0.00,WeatherCatV1.02B3,2013-01-15 04:21:00,
2013-01-14 23:26:00,38.8,29.2,30.26,West,281,7.0,9.0,68,0.00,,,0.00,WeatherCatV1.02B3,2013-01-15 04:26:00,
2013-01-14 23:31:00,38.7,29.1,30.26,WNW,291,5.0,7.0,68,0.00,,,0.00,WeatherCatV1.02B3,2013-01-15 04:31:00,
2013-01-14 23:36:00,38.6,29.0,30.25,WNW,292,4.0,5.0,68,0.00,,,0.00,WeatherCatV1.02B3,2013-01-15 04:36:00,
2013-01-14 23:41:00,38.6,29.0,30.26,WNW,295,0.0,9.0,68,0.00,,,0.00,WeatherCatV1.02B3,2013-01-15 04:41:00,
2013-01-14 23:46:00,38.5,28.5,30.26,West,263,6.0,8.0,67,0.00,,,0.00,WeatherCatV1.02B3,2013-01-15 04:46:00,
2013-01-14 23:51:00,38.5,28.9,30.25,WNW,283,5.0,9.0,68,0.00,,,0.00,WeatherCatV1.02B3,2013-01-15 04:51:00,
2013-01-14 23:56:00,38.4,28.8,30.25,West,274,2.0,9.0,68,0.00,,,0.00,WeatherCatV1.02B3,2013-01-15 04:56:00,